Change the Weather History Date:

Sunday, January 12, 2014

  Actual Average Record
Temperature  
Mean Temperature 40 °F -  
Max Temperature 51 °F 28 °F 58 °F (1960)
Min Temperature 28 °F 12 °F -25 °F (1974)
Degree Days  
Heating Degree Days 26    
Moisture  
Dew Point 31 °F    
Average Humidity 73    
Maximum Humidity 100    
Minimum Humidity 47    
Precipitation  
Precipitation 0.00 in - - ()
Sea Level Pressure  
Sea Level Pressure 29.63 in    
Wind  
Wind Speed 10 mph (SSW)    
Max Wind Speed 24 mph    
Max Gust Speed 32 mph    
Visibility 10 miles    
Events      
Averages and records for this station are not official NWS values.
T = Trace of Precipitation, MM = Missing Value Source: NWS Daily Summary

Daily Weather History Graph

Daily Weather History Graph

Search for Another Location

Airport or City:

Trip Planner

Search our weather history database for the weather conditions in past years. The results will help you decide how hot, cold, wet, or windy it might be!

Date:

Astronomy

Jan. 12, 2014 Rise Set
Actual Time 7:34 AM CST 5:05 PM CST
Civil Twilight 7:04 AM CST 5:36 PM CST
Nautical Twilight 6:30 AM CST 6:09 PM CST
Astronomical Twilight 5:57 AM CST 6:42 PM CST
Moon 2:34 PM CST (1/12) 4:33 AM CST (1/12)
Length of Visible Light 10h 31m
Length of Day
9h 31m
Waxing Gibbous, 90% of the Moon is Illuminated
Jan 12
Waxing Gibbous
Jan 15
Full
Jan 23
Last Quarter
Jan 30
New
Feb 6
First Quarter

Hourly Weather History & Observations

Time (CST) Temp. Windchill Dew Point Humidity Pressure Visibility Wind Dir Wind Speed Gust Speed Precip Events Conditions
12:15 AM 28.4 °F 21.2 °F 28.4 °F 100% 29.85 in 10.0 mi South 6.9 mph - N/A   Clear
12:35 AM 28.4 °F 21.2 °F 28.4 °F 100% 29.84 in 10.0 mi South 6.9 mph - N/A   Clear
12:55 AM 28.4 °F 21.2 °F 28.4 °F 100% 29.83 in 10.0 mi South 6.9 mph - N/A   Clear
1:15 AM 28.4 °F 21.2 °F 28.4 °F 100% 29.82 in 10.0 mi South 6.9 mph - N/A   Clear
1:35 AM 28.4 °F 21.2 °F 28.4 °F 100% 29.81 in 10.0 mi South 6.9 mph - N/A   Clear
1:55 AM 28.4 °F 21.2 °F 28.4 °F 100% 29.80 in 10.0 mi South 6.9 mph - N/A   Clear
2:15 AM 28.4 °F 21.2 °F 28.4 °F 100% 29.79 in 10.0 mi South 6.9 mph - N/A   Clear
2:35 AM 28.4 °F 21.2 °F 28.4 °F 100% 29.80 in 10.0 mi South 6.9 mph - N/A   Clear
2:55 AM 28.4 °F 21.2 °F 28.4 °F 100% 29.79 in 10.0 mi South 6.9 mph - N/A   Clear
3:15 AM 28.4 °F 21.2 °F 28.4 °F 100% 29.78 in 10.0 mi South 6.9 mph - N/A   Clear
3:35 AM 28.4 °F 21.2 °F 28.4 °F 100% 29.78 in 10.0 mi SSE 6.9 mph - N/A   Clear
3:55 AM 28.4 °F 22.2 °F 28.4 °F 100% 29.77 in 10.0 mi SSE 5.8 mph - N/A   Clear
4:15 AM 28.4 °F 20.4 °F 28.4 °F 100% 29.76 in 10.0 mi SSE 8.1 mph - N/A   Clear
4:35 AM 30.2 °F 21.9 °F 30.2 °F 100% 29.75 in 10.0 mi SSE 9.2 mph - N/A   Clear
4:55 AM 30.2 °F 21.3 °F 28.4 °F 93% 29.75 in 10.0 mi South 10.4 mph - N/A   Clear
5:15 AM 32.0 °F 23.6 °F 28.4 °F 87% 29.75 in 10.0 mi South 10.4 mph - N/A   Clear
5:35 AM 32.0 °F 24.2 °F 28.4 °F 87% 29.73 in 10.0 mi SSE 9.2 mph - N/A   Clear
5:55 AM 32.0 °F 23.6 °F 28.4 °F 87% 29.72 in 10.0 mi SSE 10.4 mph - N/A   Clear
6:15 AM 32.0 °F 23.0 °F 28.4 °F 87% 29.71 in 10.0 mi SSE 11.5 mph - N/A   Clear
6:35 AM 33.8 °F 25.3 °F 28.4 °F 81% 29.71 in 10.0 mi SSE 11.5 mph - N/A   Clear
6:55 AM 33.8 °F 24.8 °F 28.4 °F 81% 29.70 in 10.0 mi South 12.7 mph - N/A   Clear
7:15 AM 35.6 °F 26.6 °F 28.4 °F 75% 29.69 in 10.0 mi South 13.8 mph 19.6 mph N/A   Clear
7:35 AM 35.6 °F 25.2 °F 28.4 °F 75% 29.68 in 10.0 mi South 18.4 mph 24.2 mph N/A   Clear
7:55 AM 37.4 °F 27.8 °F 28.4 °F 70% 29.67 in 10.0 mi South 17.3 mph 23.0 mph N/A   Clear
8:15 AM 39.2 °F 29.6 °F 28.4 °F 65% 29.66 in 10.0 mi South 19.6 mph 26.5 mph N/A   Clear
8:35 AM 39.2 °F 29.6 °F 28.4 °F 65% 29.66 in 10.0 mi South 19.6 mph 24.2 mph N/A   Clear
8:55 AM 41.0 °F 30.9 °F 28.4 °F 61% 29.65 in 10.0 mi South 24.2 mph 29.9 mph N/A   Clear
9:15 AM 41.0 °F 31.1 °F 28.4 °F 61% 29.65 in 10.0 mi South 23.0 mph 28.8 mph N/A   Clear
9:35 AM 42.8 °F 33.8 °F 28.4 °F 57% 29.64 in 10.0 mi South 21.9 mph 28.8 mph N/A   Clear
9:55 AM 44.6 °F 36.4 °F 28.4 °F 53% 29.63 in 10.0 mi South 20.7 mph 32.2 mph N/A   Clear
10:15 AM 44.6 °F 36.9 °F 28.4 °F 53% 29.63 in 10.0 mi South 18.4 mph 28.8 mph N/A   Clear
10:35 AM 46.4 °F 38.7 °F 28.4 °F 50% 29.63 in 10.0 mi South 20.7 mph 28.8 mph N/A   Clear
10:55 AM 46.4 °F 38.5 °F 30.2 °F 53% 29.61 in 10.0 mi South 21.9 mph 29.9 mph N/A   Clear
11:15 AM 48.2 °F - 32.0 °F 54% 29.59 in 10.0 mi South 19.6 mph 27.6 mph N/A   Clear
11:35 AM 46.4 °F 39.2 °F 30.2 °F 53% 29.58 in 10.0 mi South 18.4 mph - N/A   Clear
11:55 AM 48.2 °F - 30.2 °F 50% 29.56 in 10.0 mi South 17.3 mph 28.8 mph N/A   Clear
12:15 PM 48.2 °F - 32.0 °F 54% 29.55 in 10.0 mi South 15.0 mph 26.5 mph N/A   Clear
12:35 PM 48.2 °F - 32.0 °F 54% 29.53 in 10.0 mi South 17.3 mph 24.2 mph N/A   Clear
12:55 PM 50.0 °F - 32.0 °F 50% 29.53 in 10.0 mi South 19.6 mph 25.3 mph N/A   Clear
1:15 PM 50.0 °F - 32.0 °F 50% 29.51 in 10.0 mi South 21.9 mph 26.5 mph N/A   Clear
1:35 PM 51.8 °F - 32.0 °F 47% 29.50 in 10.0 mi South 19.6 mph 26.5 mph N/A   Clear
1:55 PM 51.8 °F - 32.0 °F 47% 29.51 in 10.0 mi SSW 18.4 mph 27.6 mph N/A   Clear
2:15 PM 50.0 °F - 32.0 °F 50% 29.50 in 10.0 mi South 15.0 mph - N/A   Clear
2:35 PM 50.0 °F - 33.8 °F 54% 29.50 in 10.0 mi South 11.5 mph - N/A   Clear
2:55 PM 51.8 °F - 33.8 °F 50% 29.51 in 10.0 mi South 12.7 mph - N/A   Clear
3:15 PM 51.8 °F - 35.6 °F 54% 29.51 in 10.0 mi SSW 12.7 mph - N/A   Clear
3:35 PM 51.8 °F - 35.6 °F 54% 29.51 in 10.0 mi SSW 9.2 mph - N/A   Clear
3:55 PM 50.0 °F - 35.6 °F 58% 29.53 in 10.0 mi SW 5.8 mph - N/A   Clear
4:15 PM 48.2 °F - 35.6 °F 62% 29.53 in 10.0 mi SW 5.8 mph - N/A   Clear
4:35 PM 46.4 °F 44.3 °F 33.8 °F 62% 29.54 in 10.0 mi WSW 4.6 mph - N/A   Clear
4:55 PM 46.4 °F 45.2 °F 32.0 °F 57% 29.54 in 10.0 mi SSW 3.5 mph - N/A   Clear
5:15 PM 46.4 °F 44.3 °F 32.0 °F 57% 29.54 in 10.0 mi SSW 4.6 mph - N/A   Clear
5:35 PM 46.4 °F 44.3 °F 33.8 °F 62% 29.55 in 10.0 mi South 4.6 mph - N/A   Clear
5:55 PM 46.4 °F 45.2 °F 32.0 °F 57% 29.56 in 10.0 mi SSW 3.5 mph - N/A   Clear
6:15 PM 44.6 °F - 32.0 °F 61% 29.57 in 10.0 mi Calm Calm - N/A   Clear
6:35 PM 44.6 °F - 32.0 °F 61% 29.57 in 10.0 mi Calm Calm - N/A   Clear
6:55 PM 44.6 °F 41.4 °F 32.0 °F 61% 29.57 in 10.0 mi WSW 5.8 mph - N/A   Clear
7:15 PM 39.2 °F 34.2 °F 32.0 °F 75% 29.58 in 10.0 mi West 6.9 mph - N/A   Clear
7:35 PM 41.0 °F 38.0 °F 32.0 °F 70% 29.58 in 10.0 mi West 4.6 mph - N/A   Clear
7:55 PM 41.0 °F 37.1 °F 32.0 °F 70% 29.58 in 10.0 mi West 5.8 mph - N/A   Clear
8:15 PM 39.2 °F 34.2 °F 32.0 °F 75% 29.59 in 10.0 mi West 6.9 mph - N/A   Clear
8:35 PM 39.2 °F 35.0 °F 32.0 °F 75% 29.59 in 10.0 mi WNW 5.8 mph - N/A   Clear
8:55 PM 37.4 °F 32.1 °F 32.0 °F 81% 29.58 in 10.0 mi WNW 6.9 mph - N/A   Clear
9:15 PM 35.6 °F 29.9 °F 32.0 °F 87% 29.58 in 10.0 mi West 6.9 mph - N/A   Clear
9:35 PM 37.4 °F 31.4 °F 32.0 °F 81% 29.57 in 10.0 mi WNW 8.1 mph - N/A   Clear
9:55 PM 37.4 °F 32.8 °F 32.0 °F 81% 29.58 in 10.0 mi WNW 5.8 mph - N/A   Clear
10:15 PM 35.6 °F 29.9 °F 32.0 °F 87% 29.58 in 10.0 mi WNW 6.9 mph - N/A   Clear
10:35 PM 35.6 °F 30.7 °F 32.0 °F 87% 29.58 in 10.0 mi WNW 5.8 mph - N/A   Clear
10:55 PM 35.6 °F 29.2 °F 32.0 °F 87% 29.58 in 10.0 mi WNW 8.1 mph - N/A   Clear
11:15 PM 35.6 °F 30.7 °F 32.0 °F 87% 29.58 in 10.0 mi WNW 5.8 mph - N/A   Clear
11:35 PM 35.6 °F 27.5 °F 32.0 °F 87% 29.59 in 10.0 mi NW 11.5 mph - N/A   Clear
11:55 PM 37.4 °F 32.1 °F 32.0 °F 81% 29.60 in 10.0 mi NW 6.9 mph - N/A   Partly Cloudy